User: anonymous   Login
Location: Unspecified
(0.0000°N, 0.0000°E)
Time: 11:10:57
(UTC+00:00)
Language:

USA 281 - Orbit

View from above orbital plane
View from above orbital plane
View from above satellite
View from above satellite

Ground track
Ground track

The orbit data is extracted from the following two-line orbital elements,

1 43145U 18005A   19088.81516361 0.00000000  00000-0  00000-0 0    01
2 43145 106.0141 116.8571 0002000 169.9070 190.0930 13.48043840    02
Epoch (UTC): 29 March 2019 19:33:50
Eccentricity: 0.0002000
inclination: 106.0141°
perigee height: 1078 km
apogee height: 1081 km
right ascension of ascending node: 116.8571°
argument of perigee: 169.9070°
revolutions per day: 13.48043840
mean anomaly at epoch: 190.0930°
orbit number at epoch: 0

The dashed part of the orbit path shows where the satellite is in the earth's shadow,  

DLR